Akron Canton, OH

5:13 AM EST on November 15, 2019 (GMT -0500)
Akron-Canton Regional

Weather History for KCAK - October, 2019

Change the Weather History Date:

Monday, October 21, 2019

  Actual Average Record
Temperature  
Mean Temperature 64 °F 50 °F  
Max Temperature 73 °F 59 °F 80 °F (1920)
Min Temperature 53 °F 41 °F 22 °F (1952)
Degree Days  
Heating Degree Days 2 15  
Month to date heating degree days 152 250  
Since 1 July heating degree days 152 389  
Cooling Degree Days 0 0  
Month to date cooling degree days 41 3  
Year to date cooling degree days 1088 649  
Growing Degree Days 14 (Base 50)    
Moisture  
Dew Point 50 °F    
Average Humidity 64    
Maximum Humidity 86    
Minimum Humidity 40    
Precipitation  
Precipitation 0.01 in 0.09 in 1.19 in (1993)
Month to date precipitation 0.87 1.90  
Year to date precipitation 36.04 32.55  
Snow  
Snow 0.00 in 0.00 in - ()
Month to date snowfall 0.0 0.1  
Since 1 July snowfall 0.0 0.1  
Since 1 September snowfall 0.0 0.1  
Snow Depth 0.00 in    
Sea Level Pressure  
Sea Level Pressure 29.90 in    
Wind  
Wind Speed 8 mph ()    
Max Wind Speed 28 mph    
Max Gust Speed 34 mph    
Visibility 9.9 miles    
Events      
T = Trace of Precipitation, MM = Missing Value Source: Averaged Metar Reports

Daily Weather History Graph

Daily Weather History Graph

Search for Another Location

Airport or City:

Astronomy

Oct. 21, 2019 Rise Set
Actual Time 7:43 AM EDT 6:36 PM EDT
Civil Twilight 7:15 AM EDT 7:04 PM EDT
Nautical Twilight 6:43 AM EDT 7:36 PM EDT
Astronomical Twilight 6:11 AM EDT 8:08 PM EDT
Moon No Moon Rise 3:02 PM EDT (10/21)
Length of Visible Light 11h 48m
Length of Day
10h 53m
Waning Gibbous, 48% of the Moon is Illuminated
Oct 21
Waning Gibbous
Oct 27
New
Nov 4
First Quarter
Nov 12
Full
Nov 19
Last Quarter

Hourly Weather History & Observations

Time (EDT) Temp. Dew Point Humidity Pressure Visibility Wind Dir Wind Speed Gust Speed Precip Events Conditions
12:51 AM 55.9 °F 51.1 °F 84% 29.98 in 9.0 mi NE 3.5 mph - N/A   Mostly Cloudy
1:51 AM 57.0 °F 51.1 °F 81% 29.98 in 9.0 mi ESE 5.8 mph - N/A   Overcast
2:51 AM 57.9 °F 50.0 °F 75% 29.98 in 10.0 mi Calm Calm - N/A   Overcast
3:51 AM 57.0 °F 48.9 °F 74% 29.97 in 10.0 mi SE 4.6 mph - N/A   Scattered Clouds
4:51 AM 55.0 °F 48.9 °F 80% 29.97 in 10.0 mi SE 8.1 mph - N/A   Scattered Clouds
5:51 AM 55.0 °F 48.9 °F 80% 29.98 in 10.0 mi SE 9.2 mph - N/A   Scattered Clouds
6:51 AM 54.0 °F 48.9 °F 83% 29.99 in 10.0 mi SE 9.2 mph - N/A   Partly Cloudy
7:51 AM 53.1 °F 48.9 °F 86% 29.99 in 10.0 mi SE 9.2 mph - N/A   Partly Cloudy
8:51 AM 55.0 °F 50.0 °F 83% 29.99 in 10.0 mi SE 9.2 mph - N/A   Scattered Clouds
9:51 AM 57.9 °F 52.0 °F 81% 29.98 in 10.0 mi SE 10.4 mph - N/A   Scattered Clouds
10:51 AM 64.9 °F 53.1 °F 65% 29.95 in 10.0 mi ESE 13.8 mph - N/A   Scattered Clouds
11:51 AM 69.1 °F 50.0 °F 51% 29.93 in 10.0 mi SSE 18.4 mph 29.9 mph N/A   Scattered Clouds
12:51 PM 70.0 °F 46.9 °F 44% 29.91 in 10.0 mi SE 21.9 mph 31.1 mph 0.00 in   Scattered Clouds
1:51 PM 70.0 °F 45.0 °F 41% 29.86 in 10.0 mi SE 17.3 mph - N/A   Mostly Cloudy
2:51 PM 73.0 °F 50.0 °F 44% 29.83 in 10.0 mi SSE 15.0 mph 29.9 mph N/A   Mostly Cloudy
3:51 PM 72.0 °F 51.1 °F 48% 29.81 in 10.0 mi SE 18.4 mph - N/A   Mostly Cloudy
4:51 PM 72.0 °F 51.1 °F 48% 29.83 in 10.0 mi SSE 11.5 mph - N/A   Overcast
5:51 PM 72.0 °F 51.1 °F 48% 29.80 in 10.0 mi SSE 12.7 mph - N/A   Overcast
6:51 PM 70.0 °F 50.0 °F 49% 29.80 in 10.0 mi SSE 10.4 mph - N/A   Overcast
7:51 PM 70.0 °F 51.1 °F 51% 29.78 in 10.0 mi SSE 12.7 mph - N/A   Overcast
8:51 PM 70.0 °F 51.1 °F 51% 29.77 in 10.0 mi SSE 13.8 mph - N/A   Overcast
9:51 PM 69.1 °F 53.1 °F 57% 29.76 in 10.0 mi SSE 12.7 mph - N/A   Overcast